| time (UTC) | temp F | wind direction | speed knots | gust knots | rain 1hr in | rain 24hr in | rain mn in | humidity % | barometer mb |
| 20260504214718 | 67 | 237 | 0.9 | 5.2 | 0.00 | 0.00 | 0.00 | 55 | 1013.4 |
| 20260504214215 | 67 | 232 | 1.7 | 2.6 | 0.00 | 0.00 | 0.00 | 56 | 1013.5 |
| 20260504213712 | 67 | 37 | 3.5 | 3.5 | 0.00 | 0.00 | 0.00 | 55 | 1013.4 |
| 20260504213208 | 67 | 232 | 1.7 | 5.2 | 0.00 | 0.00 | 0.00 | 54 | 1013.6 |
| 20260504212705 | 67 | 241 | 0.9 | 3.5 | 0.00 | 0.00 | 0.00 | 55 | 1013.4 |
| 20260504212202 | 67 | 341 | 0.0 | 1.7 | 0.00 | 0.00 | 0.00 | 57 | 1013.4 |
| 20260504211659 | 68 | 216 | 1.7 | 3.5 | 0.00 | 0.00 | 0.00 | 54 | 1013.6 |
| 20260504211155 | 68 | 35 | 0.9 | 2.6 | 0.00 | 0.00 | 0.00 | 54 | 1013.4 |
| 20260504210653 | 68 | 85 | 2.6 | 3.5 | 0.00 | 0.00 | 0.00 | 53 | 1013.4 |
| 20260504210149 | 68 | 238 | 0.0 | 2.6 | 0.00 | 0.00 | 0.00 | 54 | 1013.6 |
| 20260504205647 | 68 | 156 | 1.7 | 9.6 | 0.00 | 0.00 | 0.00 | 53 | 1013.4 |
| 20260504205144 | 67 | 223 | 0.9 | 1.7 | 0.00 | 0.00 | 0.00 | 58 | 1013.3 |
| 20260504204643 | 66 | 238 | 1.7 | 3.5 | 0.00 | 0.00 | 0.00 | 57 | 1013.4 |
| 20260504204141 | 66 | 192 | 1.7 | 3.5 | 0.00 | 0.00 | 0.00 | 59 | 1013.4 |
| 20260504203639 | 66 | 235 | 1.7 | 5.2 | 0.00 | 0.00 | 0.00 | 58 | 1013.4 |
| 20260504203137 | 67 | 243 | 0.9 | 6.1 | 0.00 | 0.00 | 0.00 | 55 | 1013.3 |
| 20260504202637 | 67 | 184 | 1.7 | 7.8 | 0.00 | 0.00 | 0.00 | 55 | 1013.2 |
| 20260504202134 | 67 | 188 | 3.5 | 5.2 | 0.00 | 0.00 | 0.00 | 55 | 1013.2 |
| 20260504201631 | 67 | 210 | 3.5 | 3.5 | 0.00 | 0.00 | 0.00 | 55 | 1013.4 |
| 20260504201129 | 66 | 223 | 0.9 | 5.2 | 0.00 | 0.00 | 0.00 | 55 | 1013.4 |
| 20260504200626 | 67 | 329 | 2.6 | 5.2 | 0.00 | 0.00 | 0.00 | 54 | 1013.4 |
| 20260504200122 | 68 | 184 | 3.5 | 9.6 | 0.00 | 0.00 | 0.00 | 52 | 1013.5 |
| 20260504195618 | 68 | 243 | 2.6 | 3.5 | 0.00 | 0.00 | 0.00 | 52 | 1013.4 |
| 20260504195114 | 68 | 181 | 5.2 | 7.8 | 0.00 | 0.00 | 0.00 | 52 | 1013.6 |
| 20260504194611 | 68 | 197 | 1.7 | 3.5 | 0.00 | 0.00 | 0.00 | 53 | 1013.5 |
| 20260504194107 | 68 | 208 | 3.5 | 8.7 | 0.00 | 0.00 | 0.00 | 52 | 1013.8 |
| 20260504193603 | 69 | 296 | 2.6 | 3.5 | 0.00 | 0.00 | 0.00 | 52 | 1013.8 |
| 20260504193102 | 69 | 188 | 0.0 | 7.8 | 0.00 | 0.00 | 0.00 | 53 | 1013.6 |
| 20260504192600 | 69 | 208 | 1.7 | 3.5 | 0.00 | 0.00 | 0.00 | 53 | 1013.9 |
| 20260504192058 | 68 | 205 | 0.9 | 7.8 | 0.00 | 0.00 | 0.00 | 53 | 1013.8 |
| 20260504191556 | 70 | 232 | 5.2 | 9.6 | 0.00 | 0.00 | 0.00 | 49 | 1014.2 |
| 20260504191051 | 73 | 196 | 6.1 | 8.7 | 0.00 | 0.00 | 0.00 | 45 | 1014.0 |
| 20260504190548 | 75 | 244 | 1.7 | 7.8 | 0.00 | 0.00 | 0.00 | 30 | 1014.2 |
| 20260504190044 | 74 | 300 | 2.6 | 6.1 | 0.00 | 0.00 | 0.00 | 31 | 1014.3 |
| 20260504185541 | 74 | 278 | 0.9 | 5.2 | 0.00 | 0.00 | 0.00 | 31 | 1014.1 |
| 20260504185038 | 74 | 207 | 1.7 | 7.0 | 0.00 | 0.00 | 0.00 | 29 | 1014.4 |
| 20260504184533 | 74 | 202 | 1.7 | 3.5 | 0.00 | 0.00 | 0.00 | 30 | 1014.0 |
| 20260504184029 | 74 | 246 | 0.9 | 3.5 | 0.00 | 0.00 | 0.00 | 35 | 1013.9 |
| 20260504183526 | 73 | 244 | 1.7 | 7.8 | 0.00 | 0.00 | 0.00 | 32 | 1014.4 |
| 20260504183024 | 73 | 216 | 7.0 | 7.8 | 0.00 | 0.00 | 0.00 | 32 | 1014.5 |
| 20260504182520 | 73 | 294 | 2.6 | 7.0 | 0.00 | 0.00 | 0.00 | 32 | 1014.6 |
| 20260504182018 | 73 | 246 | 1.7 | 6.1 | 0.00 | 0.00 | 0.00 | 31 | 1014.4 |
| 20260504181515 | 72 | 204 | 1.7 | 7.8 | 0.00 | 0.00 | 0.00 | 31 | 1014.6 |
| 20260504181014 | 73 | 227 | 5.2 | 8.7 | 0.00 | 0.00 | 0.00 | 31 | 1014.9 |
| 20260504180512 | 73 | 249 | 1.7 | 9.6 | 0.00 | 0.00 | 0.00 | 36 | 1014.8 |
| 20260504180010 | 73 | 182 | 5.2 | 8.7 | 0.00 | 0.00 | 0.00 | 32 | 1014.9 |
| 20260504175507 | 73 | 200 | 6.1 | 7.8 | 0.00 | 0.00 | 0.00 | 29 | 1014.9 |
| 20260504175004 | 72 | 217 | 5.2 | 7.0 | 0.00 | 0.00 | 0.00 | 33 | 1015.1 |
| 20260504174502 | 72 | 301 | 1.7 | 9.6 | 0.00 | 0.00 | 0.00 | 32 | 1015.2 |
| 20260504173959 | 72 | 279 | 1.7 | 7.0 | 0.00 | 0.00 | 0.00 | 34 | 1015.0 |
| 20260504173455 | 72 | 191 | 2.6 | 5.2 | 0.00 | 0.00 | 0.00 | 33 | 1015.1 |
| 20260504172953 | 71 | 167 | 3.5 | 7.8 | 0.00 | 0.00 | 0.00 | 32 | 1015.0 |
| 20260504172448 | 71 | 228 | 5.2 | 11.3 | 0.00 | 0.00 | 0.00 | 34 | 1015.3 |
| 20260504171945 | 71 | 179 | 2.6 | 7.0 | 0.00 | 0.00 | 0.00 | 34 | 1015.5 |
| 20260504171443 | 70 | 248 | 7.0 | 8.7 | 0.00 | 0.00 | 0.00 | 31 | 1015.6 |
| 20260504170939 | 70 | 164 | 7.8 | 9.6 | 0.00 | 0.00 | 0.00 | 31 | 1015.5 |
| 20260504170436 | 71 | 219 | 4.3 | 13.9 | 0.00 | 0.00 | 0.00 | 34 | 1015.3 |
| 20260504160355 | 69 | 227 | 6.1 | 9.6 | 0.00 | 0.00 | 0.00 | 33 | 1016.4 |
| 20260504150820 | 68 | 201 | 1.7 | 3.5 | 0.00 | 0.00 | 0.00 | 37 | 1016.7 |
| 20260504150316 | 68 | 207 | 3.5 | 7.0 | 0.00 | 0.00 | 0.00 | 36 | 1016.8 |
| 20260504141246 | 64 | 244 | 3.5 | 8.7 | 0.00 | 0.00 | 0.00 | 39 | 1017.3 |
| 20260504140742 | 65 | 271 | 7.0 | 9.6 | 0.00 | 0.00 | 0.00 | 37 | 1017.4 |
| 20260504140238 | 65 | 252 | 2.6 | 7.8 | 0.00 | 0.00 | 0.00 | 40 | 1017.1 |
| 20260504130707 | 61 | 214 | 2.6 | 6.1 | 0.00 | 0.00 | 0.00 | 49 | 1017.9 |
| 20260504130203 | 60 | 280 | 1.7 | 7.8 | 0.00 | 0.00 | 0.00 | 51 | 1017.7 |
| 20260504120127 | 55 | 241 | 2.6 | 8.7 | 0.00 | 0.00 | 0.00 | 61 | 1018.0 |
| 20260504110554 | 52 | 239 | 3.5 | 7.8 | 0.00 | 0.00 | 0.00 | 65 | 1018.2 |
| 20260504100516 | 49 | 245 | 0.0 | 2.6 | 0.00 | 0.00 | 0.00 | 64 | 1018.2 |
| 20260504081909 | 48 | 230 | 1.7 | 3.5 | 0.00 | 0.00 | 0.00 | 56 | 1018.0 |
| 20260504081406 | 49 | 207 | 0.9 | 3.5 | 0.00 | 0.00 | 0.00 | 55 | 1017.9 |
| 20260504080902 | 49 | 225 | 1.7 | 2.6 | 0.00 | 0.00 | 0.00 | 55 | 1018.1 |
| 20260504080359 | 49 | 244 | 1.7 | 5.2 | 0.00 | 0.00 | 0.00 | 55 | 1017.9 |
| 20260504070326 | 48 | 238 | 0.9 | 2.6 | 0.00 | 0.00 | 0.00 | 55 | 1017.5 |
| 20260504060247 | 49 | 227 | 0.9 | 0.9 | 0.00 | 0.00 | 0.00 | 53 | 1017.6 |
| 20260504050715 | 49 | 244 | 1.7 | 1.7 | 0.00 | 0.00 | 0.00 | 51 | 1017.4 |
| 20260504050212 | 49 | 239 | 2.6 | 2.6 | 0.00 | 0.00 | 0.00 | 51 | 1017.2 |
| 20260504045709 | 49 | 254 | 1.7 | 2.6 | 0.00 | 0.00 | 0.00 | 51 | 1017.4 |
| 20260504045209 | 49 | 249 | 1.7 | 2.6 | 0.00 | 0.00 | 0.00 | 51 | 1017.3 |
| 20260504044708 | 49 | 243 | 0.0 | 0.9 | 0.00 | 0.00 | 0.00 | 51 | 1017.1 |
| 20260504044204 | 49 | 243 | 0.9 | 3.5 | 0.00 | 0.00 | 0.00 | 51 | 1017.2 |
| 20260504043701 | 49 | 236 | 0.9 | 1.7 | 0.00 | 0.00 | 0.00 | 51 | 1017.0 |
| 20260504043158 | 49 | 231 | 1.7 | 1.7 | 0.00 | 0.00 | 0.00 | 51 | 1017.2 |
| 20260504042655 | 49 | 240 | 1.7 | 3.5 | 0.00 | 0.00 | 0.00 | 51 | 1017.1 |
| 20260504042152 | 48 | 232 | 0.0 | 1.7 | 0.00 | 0.00 | 0.00 | 52 | 1017.0 |
| 20260504041648 | 49 | 252 | 0.0 | 0.9 | 0.00 | 0.00 | 0.00 | 52 | 1017.0 |
| 20260504041144 | 48 | 215 | 0.9 | 1.7 | 0.00 | 0.00 | 0.00 | 52 | 1017.1 |
| 20260504040641 | 48 | 244 | 0.9 | 0.9 | 0.00 | 0.00 | 0.00 | 53 | 1017.2 |
| 20260504040138 | 48 | 223 | 0.0 | 0.0 | 0.00 | 0.00 | 0.00 | 52 | 1016.6 |
| 20260504035635 | 49 | 243 | 0.0 | 0.0 | 0.00 | 0.00 | 0.00 | 52 | 1016.6 |
| 20260504035131 | 49 | 234 | 0.9 | 0.9 | 0.00 | 0.00 | 0.00 | 50 | 1016.8 |
| 20260504034629 | 49 | 233 | 0.9 | 1.7 | 0.00 | 0.00 | 0.00 | 50 | 1016.6 |
| 20260504034126 | 49 | 240 | 0.0 | 0.0 | 0.00 | 0.00 | 0.00 | 50 | 1016.6 |
| 20260504033624 | 50 | 242 | 0.0 | 0.9 | 0.00 | 0.00 | 0.00 | 49 | 1016.7 |
| 20260504033121 | 50 | 243 | 2.6 | 3.5 | 0.00 | 0.00 | 0.00 | 49 | 1016.8 |
| 20260504032618 | 49 | 242 | 0.9 | 1.7 | 0.00 | 0.00 | 0.00 | 49 | 1016.7 |
| 20260504032115 | 50 | 214 | 0.9 | 1.7 | 0.00 | 0.00 | 0.00 | 49 | 1016.6 |
| 20260504031612 | 50 | 207 | 0.9 | 1.7 | 0.00 | 0.00 | 0.00 | 49 | 1016.7 |
| 20260504031108 | 49 | 253 | 0.9 | 1.7 | 0.00 | 0.00 | 0.00 | 49 | 1016.7 |
| 20260504030605 | 50 | 235 | 0.0 | 1.7 | 0.00 | 0.00 | 0.00 | 49 | 1016.6 |
| 20260504030101 | 50 | 230 | 0.0 | 2.6 | 0.00 | 0.00 | 0.00 | 49 | 1016.6 |
| 20260504025558 | 50 | 243 | 0.9 | 0.9 | 0.00 | 0.00 | 0.00 | 49 | 1016.5 |
| 20260504025055 | 50 | 249 | 0.9 | 1.7 | 0.00 | 0.00 | 0.00 | 49 | 1016.6 |
| 20260504024552 | 50 | 252 | 0.0 | 1.7 | 0.00 | 0.00 | 0.00 | 48 | 1016.6 |
| 20260504024049 | 50 | 260 | 1.7 | 1.7 | 0.00 | 0.00 | 0.00 | 48 | 1016.6 |
| 20260504023546 | 50 | 251 | 0.0 | 0.9 | 0.00 | 0.00 | 0.00 | 48 | 1016.5 |
| 20260504023041 | 49 | 241 | 0.0 | 0.0 | 0.00 | 0.00 | 0.00 | 49 | 1016.5 |
| 20260504022537 | 49 | 240 | 0.0 | 0.0 | 0.00 | 0.00 | 0.00 | 49 | 1016.6 |
| 20260504022034 | 50 | 234 | 0.0 | 0.0 | 0.00 | 0.00 | 0.00 | 49 | 1016.6 |
| 20260504021532 | 49 | 250 | 0.9 | 0.9 | 0.00 | 0.00 | 0.00 | 49 | 1016.4 |
| 20260504021028 | 49 | 245 | 0.0 | 0.9 | 0.00 | 0.00 | 0.00 | 50 | 1016.6 |
| 20260504020525 | 49 | 240 | 0.0 | 0.0 | 0.00 | 0.00 | 0.00 | 49 | 1016.6 |
| 20260504020022 | 50 | 242 | 0.0 | 0.9 | 0.00 | 0.00 | 0.00 | 50 | 1016.6 |
| 20260504015518 | 50 | 237 | 0.0 | 0.9 | 0.00 | 0.00 | 0.00 | 50 | 1016.6 |
| 20260504015014 | 50 | 256 | 0.0 | 0.0 | 0.00 | 0.00 | 0.00 | 51 | 1016.3 |
| 20260504014510 | 50 | 238 | 0.0 | 0.0 | 0.00 | 0.00 | 0.00 | 49 | 1016.6 |
| 20260504014008 | 50 | 244 | 0.0 | 0.0 | 0.00 | 0.00 | 0.00 | 49 | 1016.5 |
| 20260504013506 | 50 | 239 | 0.0 | 0.9 | 0.00 | 0.00 | 0.00 | 48 | 1016.2 |
| 20260504013001 | 50 | 246 | 0.0 | 0.0 | 0.00 | 0.00 | 0.00 | 50 | 1016.4 |
| 20260504012500 | 50 | 247 | 0.0 | 0.0 | 0.00 | 0.00 | 0.00 | 49 | 1016.3 |
| 20260504011957 | 50 | 246 | 0.0 | 0.0 | 0.00 | 0.00 | 0.00 | 49 | 1016.3 |
| 20260504011453 | 50 | 246 | 0.0 | 0.9 | 0.00 | 0.00 | 0.00 | 48 | 1016.3 |
| 20260504010949 | 50 | 243 | 0.0 | 0.0 | 0.00 | 0.00 | 0.00 | 48 | 1016.1 |
| 20260504010446 | 50 | 243 | 0.0 | 0.9 | 0.00 | 0.00 | 0.00 | 48 | 1016.1 |
| 20260504005942 | 50 | 243 | 0.0 | 0.0 | 0.00 | 0.00 | 0.00 | 47 | 1015.9 |
| 20260504005439 | 51 | 238 | 0.0 | 0.0 | 0.00 | 0.00 | 0.00 | 46 | 1015.8 |
| 20260504004936 | 51 | 238 | 0.0 | 0.0 | 0.00 | 0.00 | 0.00 | 45 | 1015.8 |
| 20260504004434 | 51 | 238 | 0.0 | 0.0 | 0.00 | 0.00 | 0.00 | 46 | 1015.7 |
| 20260504003930 | 52 | 238 | 0.0 | 0.0 | 0.00 | 0.00 | 0.00 | 45 | 1015.6 |
| 20260504003427 | 52 | 238 | 0.0 | 0.0 | 0.00 | 0.00 | 0.00 | 45 | 1015.8 |
| 20260504002924 | 53 | 238 | 0.0 | 0.0 | 0.00 | 0.00 | 0.00 | 42 | 1015.5 |
| 20260504002420 | 53 | 238 | 0.0 | 0.0 | 0.00 | 0.00 | 0.00 | 41 | 1015.4 |
| 20260504001918 | 54 | 238 | 0.0 | 0.0 | 0.00 | 0.00 | 0.00 | 40 | 1015.3 |
| 20260504001416 | 54 | 238 | 0.0 | 0.0 | 0.00 | 0.00 | 0.00 | 39 | 1015.3 |
| 20260504000912 | 55 | 240 | 0.0 | 0.0 | 0.00 | 0.00 | 0.00 | 37 | 1015.4 |
| 20260504000409 | 55 | 241 | 0.0 | 0.0 | 0.00 | 0.00 | 0.00 | 36 | 1015.0 |
| 20260503235906 | 55 | 241 | 0.0 | 0.9 | 0.00 | 0.00 | 0.00 | 35 | 1015.0 |
| 20260503235404 | 56 | 243 | 0.0 | 0.0 | 0.00 | 0.00 | 0.00 | 35 | 1015.1 |
| 20260503234901 | 56 | 243 | 0.0 | 0.0 | 0.00 | 0.00 | 0.00 | 34 | 1015.0 |
| 20260503234359 | 57 | 243 | 0.9 | 0.9 | 0.00 | 0.00 | 0.00 | 33 | 1015.0 |
| 20260503233856 | 57 | 244 | 0.0 | 0.9 | 0.00 | 0.00 | 0.00 | 33 | 1015.1 |
| 20260503233353 | 57 | 241 | 1.7 | 1.7 | 0.00 | 0.00 | 0.00 | 33 | 1014.8 |
| 20260503232849 | 58 | 236 | 1.7 | 1.7 | 0.00 | 0.00 | 0.00 | 32 | 1015.1 |
| 20260503232347 | 58 | 241 | 0.9 | 1.7 | 0.00 | 0.00 | 0.00 | 32 | 1015.1 |
| 20260503231844 | 58 | 252 | 0.9 | 6.1 | 0.00 | 0.00 | 0.00 | 31 | 1014.9 |
| 20260503231341 | 58 | 232 | 0.9 | 6.1 | 0.00 | 0.00 | 0.00 | 31 | 1015.0 |
| 20260503230837 | 58 | 230 | 1.7 | 2.6 | 0.00 | 0.00 | 0.00 | 31 | 1014.8 |
| 20260503230334 | 58 | 268 | 0.0 | 3.5 | 0.00 | 0.00 | 0.00 | 32 | 1014.7 |
| 20260503225832 | 59 | 282 | 0.9 | 2.6 | 0.00 | 0.00 | 0.00 | 30 | 1014.7 |
| 20260503225328 | 59 | 240 | 0.9 | 1.7 | 0.00 | 0.00 | 0.00 | 30 | 1014.8 |
| 20260503224824 | 59 | 257 | 0.0 | 6.1 | 0.00 | 0.00 | 0.00 | 30 | 1014.6 |
| 20260503224321 | 59 | 205 | 1.7 | 5.2 | 0.00 | 0.00 | 0.00 | 30 | 1014.5 |
| 20260503223819 | 59 | 190 | 2.6 | 3.5 | 0.00 | 0.00 | 0.00 | 30 | 1014.5 |
| 20260503223317 | 59 | 328 | 1.7 | 5.2 | 0.00 | 0.00 | 0.00 | 30 | 1014.7 |
| 20260503222812 | 59 | 307 | 1.7 | 6.1 | 0.00 | 0.00 | 0.00 | 29 | 1014.6 |
| 20260503222311 | 60 | 216 | 3.5 | 6.1 | 0.00 | 0.00 | 0.00 | 29 | 1014.5 |
| 20260503221809 | 60 | 286 | 1.7 | 1.7 | 0.00 | 0.00 | 0.00 | 30 | 1014.6 |
| 20260503221307 | 60 | 270 | 1.7 | 2.6 | 0.00 | 0.00 | 0.00 | 29 | 1014.5 |
| 20260503220802 | 60 | 243 | 2.6 | 3.5 | 0.00 | 0.00 | 0.00 | 30 | 1014.6 |
| 20260503220259 | 60 | 281 | 5.2 | 8.7 | 0.00 | 0.00 | 0.00 | 28 | 1014.6 |
| 20260503215756 | 60 | 263 | 1.7 | 6.1 | 0.00 | 0.00 | 0.00 | 29 | 1014.6 |
| 20260503215253 | 60 | 303 | 2.6 | 3.5 | 0.00 | 0.00 | 0.00 | 29 | 1014.4 |